• In Uzbekistan
  • List of Countries
  • For 7 days
  • Water Temperature
  • Satellite Maps
  • Weather Map
  • Weather Widgets
  • user-avatar
    Login

    Hourly Weather Viroflay

    Today, 24 November, Friday

    Time Temperature Precipitation Wind Pressure Humidity
    00:00 +10°C° 0 mm 5 mps 742 mmHg 87%
    01:00 +11°C° 0 mm 6 mps 742 mmHg 84%
    02:00 +11°C° 0 mm 7 mps 742 mmHg 80%
    03:00 +11°C° 0 mm 8 mps 742 mmHg 77%
    04:00 +11°C° 0.1 mm 7 mps 742 mmHg 78%
    05:00 +11°C° 0.1 mm 7 mps 742 mmHg 79%
    06:00 +11°C° 0 mm 3 mps 743 mmHg 83%
    07:00 +10°C° 0 mm 3 mps 743 mmHg 84%
    08:00 +10°C° 0 mm 3 mps 743 mmHg 84%
    09:00 +10°C° 0 mm 3 mps 744 mmHg 85%
    10:00 +11°C° 0 mm 3 mps 744 mmHg 81%
    11:00 +11°C° 0 mm 3 mps 744 mmHg 77%
    12:00 +12°C° 0 mm 3 mps 745 mmHg 73%
    13:00 +12°C° 0 mm 3 mps 745 mmHg 73%
    14:00 +12°C° 0 mm 3 mps 745 mmHg 73%
    15:00 +12°C° 0 mm 3 mps 744 mmHg 72%
    16:00 +12°C° 0 mm 2 mps 744 mmHg 75%
    17:00 +10°C° 0 mm 2 mps 744 mmHg 78%
    18:00 +10°C° 0 mm 2 mps 744 mmHg 80%
    19:00 +9°C° 0.1 mm 2 mps 744 mmHg 82%
    20:00 +9°C° 0.1 mm 2 mps 744 mmHg 83%
    21:00 +9°C° 0.1 mm 2 mps 745 mmHg 84%
    22:00 +8°C° 0.3 mm 2 mps 744 mmHg 85%
    23:00 +8°C° 0.3 mm 2 mps 744 mmHg 86%

    Tomorrow, 25 November, Saturday

    Time Temperature Precipitation Wind Pressure Humidity
    00:00 +8°C° 0.3 mm 2 mps 744 mmHg 87%
    01:00 +8°C° 0.2 mm 2 mps 744 mmHg 87%
    02:00 +7°C° 0.2 mm 2 mps 744 mmHg 87%
    03:00 +7°C° 0.2 mm 3 mps 743 mmHg 88%
    04:00 +5°C° 0.1 mm 3 mps 744 mmHg 88%
    05:00 +5°C° 0.1 mm 3 mps 744 mmHg 89%
    06:00 +4°C° 0.1 mm 3 mps 744 mmHg 89%
    07:00 +4°C° 0.4 mm 3 mps 745 mmHg 87%
    08:00 +4°C° 0.4 mm 3 mps 746 mmHg 85%
    09:00 +5°C° 0.4 mm 3 mps 746 mmHg 84%
    10:00 +5°C° 0.3 mm 3 mps 747 mmHg 78%
    11:00 +5°C° 0.3 mm 4 mps 747 mmHg 73%
    12:00 +6°C° 0.3 mm 5 mps 748 mmHg 68%
    13:00 +6°C° 0.2 mm 5 mps 749 mmHg 66%
    14:00 +5°C° 0.2 mm 5 mps 749 mmHg 64%
    15:00 +5°C° 0.2 mm 4 mps 749 mmHg 62%
    16:00 +4°C° 0 mm 4 mps 750 mmHg 65%
    17:00 +4°C° 0 mm 4 mps 751 mmHg 68%
    18:00 +3°C° 0 mm 3 mps 751 mmHg 72%
    19:00 +3°C° 0 mm 3 mps 752 mmHg 73%
    20:00 +2°C° 0 mm 3 mps 752 mmHg 75%
    21:00 +2°C° 0 mm 3 mps 753 mmHg 77%
    22:00 +2°C° 0 mm 3 mps 753 mmHg 78%
    23:00 +1°C° 0 mm 3 mps 753 mmHg 79%

    Day after tomorrow, 26 November, Sunday

    Time Temperature Precipitation Wind Pressure Humidity
    00:00 +1°C° 0 mm 3 mps 754 mmHg 80%
    01:00 +1°C° 0 mm 3 mps 754 mmHg 81%
    02:00 +1°C° 0 mm 3 mps 754 mmHg 81%
    03:00 +1°C° 0 mm 3 mps 754 mmHg 82%
    04:00 +1°C° 0 mm 3 mps 755 mmHg 82%
    05:00 +1°C° 0 mm 3 mps 755 mmHg 82%
    06:00 +1°C° 0 mm 3 mps 755 mmHg 82%
    07:00 +1°C° 0 mm 3 mps 755 mmHg 79%
    08:00 +2°C° 0 mm 3 mps 756 mmHg 77%
    09:00 +2°C° 0 mm 3 mps 756 mmHg 75%
    10:00 +3°C° 0.1 mm 4 mps 756 mmHg 70%
    11:00 +4°C° 0.1 mm 4 mps 757 mmHg 65%
    12:00 +5°C° 0.1 mm 4 mps 757 mmHg 61%
    13:00 +5°C° 0.1 mm 4 mps 757 mmHg 61%
    14:00 +5°C° 0.1 mm 3 mps 757 mmHg 62%
    15:00 +5°C° 0.1 mm 3 mps 757 mmHg 62%
    16:00 +4°C° 0 mm 3 mps 757 mmHg 66%
    17:00 +3°C° 0 mm 3 mps 758 mmHg 70%
    18:00 +3°C° 0 mm 2 mps 758 mmHg 73%
    19:00 +3°C° 0 mm 2 mps 758 mmHg 74%
    20:00 +3°C° 0 mm 2 mps 758 mmHg 75%
    21:00 +3°C° 0 mm 2 mps 759 mmHg 76%
    22:00 +3°C° 0 mm 2 mps 759 mmHg 76%
    23:00 +3°C° 0 mm 2 mps 759 mmHg 77%

    27 November, Monday

    Time Temperature Precipitation Wind Pressure Humidity
    00:00 +3°C° 0 mm 2 mps 759 mmHg 77%
    01:00 +3°C° 0 mm 2 mps 759 mmHg 77%
    02:00 +3°C° 0 mm 2 mps 758 mmHg 76%
    03:00 +2°C° 0 mm 3 mps 758 mmHg 76%
    04:00 +2°C° 0 mm 3 mps 758 mmHg 77%
    05:00 +3°C° 0 mm 2 mps 758 mmHg 78%
    06:00 +3°C° 0 mm 2 mps 758 mmHg 78%
    07:00 +3°C° 0 mm 3 mps 758 mmHg 78%
    08:00 +3°C° 0 mm 3 mps 758 mmHg 78%
    09:00 +3°C° 0 mm 3 mps 758 mmHg 78%
    10:00 +4°C° 0 mm 4 mps 758 mmHg 75%
    11:00 +5°C° 0 mm 4 mps 757 mmHg 72%
    12:00 +6°C° 0 mm 4 mps 757 mmHg 69%
    13:00 +6°C° 0 mm 4 mps 756 mmHg 69%
    14:00 +6°C° 0 mm 4 mps 756 mmHg 69%
    15:00 +6°C° 0 mm 4 mps 755 mmHg 70%
    16:00 +5°C° 0 mm 4 mps 755 mmHg 72%
    17:00 +5°C° 0 mm 5 mps 754 mmHg 75%
    18:00 +3°C° 0 mm 5 mps 754 mmHg 78%
    19:00 +3°C° 0 mm 5 mps 753 mmHg 78%
    20:00 +3°C° 0 mm 5 mps 753 mmHg 78%
    21:00 +3°C° 0 mm 6 mps 752 mmHg 78%
    22:00 +3°C° 0.1 mm 6 mps 751 mmHg 78%
    23:00 +3°C° 0.1 mm 6 mps 751 mmHg 78%

    28 November, Tuesday

    Time Temperature Precipitation Wind Pressure Humidity
    00:00 +3°C° 0.1 mm 7 mps 750 mmHg 77%
    01:00 +3°C° 0.1 mm 7 mps 749 mmHg 78%
    02:00 +3°C° 0.1 mm 7 mps 748 mmHg 78%
    03:00 +3°C° 0.1 mm 7 mps 747 mmHg 79%
    04:00 +3°C° 0.6 mm 7 mps 746 mmHg 80%
    05:00 +2°C° 0.6 mm 8 mps 745 mmHg 81%
    06:00 +2°C° 0.6 mm 8 mps 745 mmHg 82%
    07:00 +2°C° 1.8 mm 8 mps 744 mmHg 82%
    08:00 +2°C° 1.8 mm 8 mps 743 mmHg 82%
    09:00 +2°C° 1.8 mm 8 mps 742 mmHg 81%
    10:00 +2°C° 1.5 mm 8 mps 741 mmHg 82%
    11:00 +4°C° 1.5 mm 8 mps 740 mmHg 83%
    12:00 +4°C° 1.5 mm 8 mps 739 mmHg 83%
    13:00 +5°C° 0.4 mm 8 mps 739 mmHg 80%
    14:00 +5°C° 0.4 mm 7 mps 738 mmHg 76%
    15:00 +6°C° 0.4 mm 7 mps 738 mmHg 73%
    16:00 +5°C° 0.2 mm 6 mps 738 mmHg 75%
    17:00 +6°C° 0.2 mm 5 mps 738 mmHg 78%
    18:00 +5°C° 0.2 mm 5 mps 738 mmHg 80%
    19:00 +5°C° 0 mm 4 mps 739 mmHg 79%
    20:00 +4°C° 0 mm 4 mps 739 mmHg 78%
    21:00 +3°C° 0 mm 3 mps 739 mmHg 77%
    22:00 +3°C° 0 mm 3 mps 739 mmHg 79%
    23:00 +3°C° 0 mm 3 mps 739 mmHg 81%

    29 November, Wednesday

    Time Temperature Precipitation Wind Pressure Humidity
    00:00 +1°C° 0 mm 4 mps 739 mmHg 83%
    01:00 +1°C° 0 mm 4 mps 739 mmHg 84%
    02:00 +1°C° 0 mm 4 mps 738 mmHg 84%
    03:00 0°C° 0 mm 4 mps 738 mmHg 85%
    04:00 +1°C° 0.2 mm 5 mps 737 mmHg 85%
    05:00 +1°C° 0.2 mm 5 mps 737 mmHg 84%
    06:00 +1°C° 0.2 mm 5 mps 737 mmHg 84%
    07:00 +1°C° 0.3 mm 5 mps 737 mmHg 84%
    08:00 +1°C° 0.3 mm 5 mps 737 mmHg 85%
    09:00 +3°C° 0.3 mm 4 mps 737 mmHg 85%
    10:00 +4°C° 0 mm 4 mps 737 mmHg 82%
    11:00 +5°C° 0 mm 4 mps 737 mmHg 79%
    12:00 +5°C° 0 mm 4 mps 737 mmHg 76%
    13:00 +5°C° 0 mm 4 mps 738 mmHg 77%
    14:00 +5°C° 0 mm 4 mps 738 mmHg 78%
    15:00 +5°C° 0 mm 4 mps 738 mmHg 79%
    16:00 +4°C° 0 mm 4 mps 739 mmHg 81%
    17:00 +3°C° 0 mm 3 mps 740 mmHg 83%
    18:00 +3°C° 0 mm 3 mps 740 mmHg 86%
    19:00 +2°C° 0 mm 3 mps 741 mmHg 86%
    20:00 +2°C° 0 mm 3 mps 742 mmHg 87%
    21:00 +2°C° 0 mm 2 mps 742 mmHg 88%
    22:00 +2°C° 0 mm 2 mps 743 mmHg 89%
    23:00 +2°C° 0 mm 2 mps 743 mmHg 89%
    Show more